SCP
0 0 0 0 0 0 0 0 0 0 0 0 0 0 0 0 0 0 0 0 0 0
0 0 0 0 0 0 0 0 0 0 0 0 0 0 0 0 0 0 0 0 0 0
0 0 0 0 0 0 0 0 0 0 0 0 0 0 0 0 0 0 0 0 0 0
0 0 0 0 0 0 0 0 0 0 0 0 0 0 0 0 0 0 0 0 0 0
0 0 0 0 0 0 0 0 0 0 0 0 0 0 0 0 0 0 0 0 0 0
0 0 0 0 0 0 0 0 0 0 0 0 0 0 0 0 0 0 0 0 0 0
0 0 0 0 0 0 0 0 0 0 0 0 0 0 0 0 0 0 0 0 0 0
0 0 0 0 0 0 0 0 0 0 0 0 0 0 0 0 0 0 0 0 0 0
0 0 0 0 0 0 0 0 0 0 0 0 0 0 0 0 0 0 0 0 0 0
1 0 0 0 0 0 0 0 0 0 0 0 0 0 0 0 0 0 0 0 0 0
1 1 0 0 0 0 0 0 0 0 0 0 0 0 0 0 0 0 0 0 0 0
2 1 0 0 0 0 0 0 0 0 0 0 0 0 0 0 0 0 0 0 0 0
2 1 0 0 0 0 0 0 0 0 0 0 0 0 0 0 0 0 0 0 0 0
1 0 0 0 0 0 0 0 0 0 0 0 0 0 0 0 0 0 0 0 0 0
Wind_Speed_500mb
91 78 75 63 53 41 44 48 53 52 53 50 42 33 23 15 9 4 11 8 2 5
87 85 75 68 58 42 40 48 50 52 53 51 42 37 27 20 9 3 6 6 7 8
89 80 77 67 63 53 45 49 51 52 56 53 46 40 31 23 11 5 6 7 9 13
80 76 76 71 67 57 48 52 55 56 63 57 50 42 32 24 17 11 12 8 8 8
68 69 76 75 66 54 50 54 58 63 67 63 54 43 36 31 17 20 14 10 7 7
70 77 72 71 65 57 56 58 66 69 75 70 59 49 41 31 26 23 21 12 4 8
71 73 65 69 63 62 61 67 72 77 83 78 66 54 44 30 27 31 21 9 9 10
62 62 59 63 63 59 62 71 78 80 92 83 71 60 47 37 36 30 19 16 17 12
61 59 63 62 59 62 71 82 80 87 93 86 72 65 48 43 42 28 27 29 22 12
62 65 67 68 68 76 76 81 82 95 98 88 81 70 55 48 36 39 37 31 23 14
67 69 72 75 75 77 79 89 94 103 99 96 86 68 57 48 47 46 38 26 21 16
77 83 81 81 81 84 87 94 100 102 100 96 76 69 61 53 50 47 39 28 22 20
82 78 76 78 82 82 87 94 101 105 99 83 75 64 48 45 58 53 41 37 28 24
73 62 73 74 78 80 93 95 101 100 85 79 66 60 52 44 56 41 50 41 35 24
Wind_Direction_500mb
231 236 241 244 236 223 234 227 219 217 218 218 219 216 219 217 200 13 9 2 292 211
232 237 239 246 236 227 231 222 220 218 217 216 216 219 219 219 221 325 351 316 289 291
228 235 243 238 231 227 227 218 219 220 218 217 216 216 216 215 227 227 254 257 287 298
227 232 238 240 225 226 225 217 220 223 219 218 218 218 214 211 214 235 254 236 253 273
227 232 237 231 223 222 222 219 222 220 219 219 219 221 211 209 230 239 227 223 268 278
227 232 237 226 221 225 224 218 220 218 218 217 217 219 205 198 224 211 212 233 256 186
230 234 233 222 226 227 221 216 219 221 219 216 216 213 199 217 203 192 214 217 194 177
228 228 220 220 222 222 223 222 223 221 213 213 214 206 204 205 190 203 202 198 178 175
223 218 214 214 218 221 222 223 223 216 212 211 211 205 204 205 196 198 190 174 175 176
216 214 211 210 209 214 217 219 217 210 210 209 207 206 209 196 189 176 177 180 176 173
215 215 212 209 213 213 213 214 212 210 210 212 206 204 197 186 179 177 186 187 189 176
214 215 212 212 215 214 210 210 211 212 211 208 198 192 186 181 182 189 186 183 167 196
215 216 218 218 216 217 215 211 211 208 204 196 192 184 182 182 199 189 182 158 166 171
219 220 220 219 218 219 211 211 211 204 199 199 192 182 181 201 202 195 168 170 182 190
Wind_Speed_850mb
91 78 75 63 53 41 44 48 53 52 53 50 42 33 23 15 9 4 11 8 2 5
87 85 75 68 58 42 40 48 50 52 53 51 42 37 27 20 9 3 6 6 7 8
89 80 77 67 63 53 45 49 51 52 56 53 46 40 31 23 11 5 6 7 9 13
80 76 76 71 67 57 48 52 55 56 63 57 50 42 32 24 17 11 12 8 8 8
68 69 76 75 66 54 50 54 58 63 67 63 54 43 36 31 17 20 14 10 7 7
70 77 72 71 65 57 56 58 66 69 75 70 59 49 41 31 26 23 21 12 4 8
71 73 65 69 63 62 61 67 72 77 83 78 66 54 44 30 27 31 21 9 9 10
62 62 59 63 63 59 62 71 78 80 92 83 71 60 47 37 36 30 19 16 17 12
61 59 63 62 59 62 71 82 80 87 93 86 72 65 48 43 42 28 27 29 22 12
62 65 67 68 68 76 76 81 82 95 98 88 81 70 55 48 36 39 37 31 23 14
67 69 72 75 75 77 79 89 94 103 99 96 86 68 57 48 47 46 38 26 21 16
77 83 81 81 81 84 87 94 100 102 100 96 76 69 61 53 50 47 39 28 22 20
82 78 76 78 82 82 87 94 101 105 99 83 75 64 48 45 58 53 41 37 28 24
73 62 73 74 78 80 93 95 101 100 85 79 66 60 52 44 56 41 50 41 35 24
Wind_Direction_850mb
231 236 241 244 236 223 234 227 219 217 218 218 219 216 219 217 200 13 9 2 292 211
232 237 239 246 236 227 231 222 220 218 217 216 216 219 219 219 221 325 351 316 289 291
228 235 243 238 231 227 227 218 219 220 218 217 216 216 216 215 227 227 254 257 287 298
227 232 238 240 225 226 225 217 220 223 219 218 218 218 214 211 214 235 254 236 253 273
227 232 237 231 223 222 222 219 222 220 219 219 219 221 211 209 230 239 227 223 268 278
227 232 237 226 221 225 224 218 220 218 218 217 217 219 205 198 224 211 212 233 256 186
230 234 233 222 226 227 221 216 219 221 219 216 216 213 199 217 203 192 214 217 194 177
228 228 220 220 222 222 223 222 223 221 213 213 214 206 204 205 190 203 202 198 178 175
223 218 214 214 218 221 222 223 223 216 212 211 211 205 204 205 196 198 190 174 175 176
216 214 211 210 209 214 217 219 217 210 210 209 207 206 209 196 189 176 177 180 176 173
215 215 212 209 213 213 213 214 212 210 210 212 206 204 197 186 179 177 186 187 189 176
214 215 212 212 215 214 210 210 211 212 211 208 198 192 186 181 182 189 186 183 167 196
215 216 218 218 216 217 215 211 211 208 204 196 192 184 182 182 199 189 182 158 166 171
219 220 220 219 218 219 211 211 211 204 199 199 192 182 181 201 202 195 168 170 182 190